(85905) = 1999 CY73 = 1999 GA10 = 2001 UT95

Discovered at Socorro on 1999-02-12 by LINEAR.

Orbit

Orbit type: Main Belt

Note: WebGL enabled browser required.

epoch2024-03-31.0
epoch JD2460400.5
perihelion date2024-01-18.00390
perihelion JD2460327.50390
argument of perihelion (°)14.38940
ascending node (°)170.54515
inclination (°)5.06901
eccentricity0.2240585
perihelion distance (AU)1.9877749
Tisserand w.r.t. Jupiter3.4
ΔV w.r.t. Earth (km/sec)9.0
semimajor axis (AU)2.5617587
mean anomaly (°)17.54674
mean daily motion (°/day)0.24037910
aphelion distance (AU)3.136
period (years)4.1
P-vector [x]-0.99613395
P-vector [y]-0.08677424
P-vector [z]-0.01368913
Q-vector [x]0.08664006
Q-vector [y]-0.94469627
Q-vector [z]-0.31629490
absolute magnitude15.63
phase slope0.15
uncertainty0
referenceE2024-H23
observations used1092
oppositions19
arc length (days)12062
first opposition used1991
last opposition used2024
residual rms (arc-secs)0.69
perturbers coarse indicatorM-v
perturbers precise indicator003Ek
first observation date used1991-04-09.0
last observation date used2024-04-17.0
computer nameMPCLINUX
JD of orbit computation2456612.504302
perihelion JD uncertainty (days)1.0576E-04
argument of perihelion uncertainty (°)5.1299E-05
ascending node uncertainty (°)4.9207E-05
inclination uncertainty (°)6.7195E-06
eccentricity uncertainty 7.5810E-08
perihelion distance uncertainty (AU)2.0003E-07
Minimum Orbit Intersection Distances (in AU)
for orbit epoch: 2460400.5, reference: E2024-H23
Mercury1.57761
Venus1.26798
Earth0.99065
Mars0.33759
Jupiter1.81755
Saturn6.20949
Uranus16.3965
Neptune26.7189

Observations

1078 total observations over interval: 1991 04 09.36036 – 2024 03 18.308003
These data are available for download (format description).

Date (UT) J2000 RA J2000 Dec Magn Location Ref
1991 04 09.36036 13 13 30.66 -02 46 37.0 18.3 V 691 – Steward Observatory, Kitt Peak-Spacewatch MPS 77802
1991 04 09.38058 13 13 29.71 -02 46 27.1 18.3 V 691 – Steward Observatory, Kitt Peak-Spacewatch MPS 77802
1991 04 09.40084 13 13 28.77 -02 46 17.1 18.3 V 691 – Steward Observatory, Kitt Peak-Spacewatch MPS 77802
1999 01 15.41940 10 17 56.88 +05 35 15.6 18.5 R 699 – Lowell Observatory-LONEOS MPS 16448
1999 01 15.44490 10 17 56.65 +05 35 17.8   699 – Lowell Observatory-LONEOS MPS 16448
1999 01 15.47037 10 17 56.38 +05 35 21.0   699 – Lowell Observatory-LONEOS MPS 16448
1999 02 12.36437 10 03 39.17 +07 46 07.7 17.7   704 – Lincoln Laboratory ETS, New Mexico MPS 3963
1999 02 12.38163 10 03 38.35 +07 46 15.5 17.4 R 699 – Lowell Observatory-LONEOS MPS 3963
1999 02 12.38191 10 03 38.25 +07 46 15.0   704 – Lincoln Laboratory ETS, New Mexico MPS 3963
1999 02 12.39938 10 03 37.40 +07 46 22.5   704 – Lincoln Laboratory ETS, New Mexico MPS 3963
1999 02 12.40716 10 03 37.05 +07 46 26.2   699 – Lowell Observatory-LONEOS MPS 3963
1999 02 12.41690 10 03 36.50 +07 46 29.7 18.4   704 – Lincoln Laboratory ETS, New Mexico MPS 3963
1999 02 12.43382 10 03 35.71 +07 46 38.6   699 – Lowell Observatory-LONEOS MPS 3963
1999 02 12.43441 10 03 35.56 +07 46 37.7 18.4   704 – Lincoln Laboratory ETS, New Mexico MPS 3963
1999 02 16.29924 10 00 28.34 +08 15 45.1 18.4   704 – Lincoln Laboratory ETS, New Mexico MPS 3963
1999 02 16.32020 10 00 27.20 +08 15 54.5 18.4   704 – Lincoln Laboratory ETS, New Mexico MPS 3963
1999 02 16.34109 10 00 26.20 +08 16 03.6 18.6   704 – Lincoln Laboratory ETS, New Mexico MPS 3963
1999 02 16.36210 10 00 25.03 +08 16 14.1 18.7   704 – Lincoln Laboratory ETS, New Mexico MPS 3963
1999 02 16.38301 10 00 24.02 +08 16 24.3 18.7   704 – Lincoln Laboratory ETS, New Mexico MPS 3963
1999 03 21.19316 09 39 34.02 +12 15 39.2 18.3 R 699 – Lowell Observatory-LONEOS MPS 58718
1999 03 21.21352 09 39 33.63 +12 15 46.2   699 – Lowell Observatory-LONEOS MPS 58718
1999 03 21.23391 09 39 33.25 +12 15 53.0   699 – Lowell Observatory-LONEOS MPS 58718
1999 03 24.14062 09 39 00.62 +12 30 31.0 18.0 R 699 – Lowell Observatory-LONEOS MPS 58718
1999 03 24.17118 09 39 00.31 +12 30 40.4   699 – Lowell Observatory-LONEOS MPS 58718
1999 03 24.20104 09 39 00.05 +12 30 48.7   699 – Lowell Observatory-LONEOS MPS 58718
1999 04 10.12802 09 41 32.99 +13 22 01.1 21.0 V 691 – Steward Observatory, Kitt Peak-Spacewatch MPS 16448
1999 04 10.14992 09 41 33.42 +13 22 03.9 20.1 V 691 – Steward Observatory, Kitt Peak-Spacewatch MPS 16448
1999 04 10.17158 09 41 34.00 +13 22 05.3 19.8 V 691 – Steward Observatory, Kitt Peak-Spacewatch MPS 16448
1999 04 11.12814 09 41 59.81 +13 23 13.1 18.4 V 691 – Steward Observatory, Kitt Peak-Spacewatch MPS 4577
1999 04 11.14971 09 42 00.35 +13 23 14.9 18.5 V 691 – Steward Observatory, Kitt Peak-Spacewatch MPS 4577
1999 04 11.17127 09 42 00.91 +13 23 16.4 18.5 V 691 – Steward Observatory, Kitt Peak-Spacewatch MPS 4577
1999 04 16.12940 09 44 42.26 +13 26 07.3 18.8 V 691 – Steward Observatory, Kitt Peak-Spacewatch MPS 4577
1999 04 16.15082 09 44 43.00 +13 26 07.2 18.8 V 691 – Steward Observatory, Kitt Peak-Spacewatch MPS 4577
1999 04 16.17235 09 44 43.75 +13 26 07.3 18.8 V 691 – Steward Observatory, Kitt Peak-Spacewatch MPS 4577
1999 04 20.13723 09 47 25.10 +13 24 50.4 19.8 V 691 – Steward Observatory, Kitt Peak-Spacewatch MPS 16448
1999 04 20.15873 09 47 25.98 +13 24 49.4 19.8 V 691 – Steward Observatory, Kitt Peak-Spacewatch MPS 16448
1999 04 20.18023 09 47 26.87 +13 24 48.2 20.0 V 691 – Steward Observatory, Kitt Peak-Spacewatch MPS 16448
2001 09 21.40872 01 58 29.82 +08 20 05.5 19.9   704 – Lincoln Laboratory ETS, New Mexico MPS 41644
2001 09 21.42297 01 58 29.30 +08 20 01.7 20.0   704 – Lincoln Laboratory ETS, New Mexico MPS 41644
2001 09 21.43721 01 58 28.81 +08 19 57.7 19.7   704 – Lincoln Laboratory ETS, New Mexico MPS 41644
2001 09 21.45147 01 58 28.42 +08 19 54.9 20.2   704 – Lincoln Laboratory ETS, New Mexico MPS 41644
2001 09 21.46573 01 58 27.81 +08 19 49.7 19.8   704 – Lincoln Laboratory ETS, New Mexico MPS 41644
2001 10 16.25165 01 40 10.12 +05 56 59.8 18.8   704 – Lincoln Laboratory ETS, New Mexico MPS 41164
2001 10 16.26737 01 40 09.32 +05 56 53.5 19.1   704 – Lincoln Laboratory ETS, New Mexico MPS 41164
2001 10 16.29882 01 40 07.64 +05 56 42.5 19.4   704 – Lincoln Laboratory ETS, New Mexico MPS 41164
2001 10 16.31456 01 40 06.83 +05 56 35.9 19.3   704 – Lincoln Laboratory ETS, New Mexico MPS 41164
2001 10 23.26352 01 34 10.24 +05 14 34.3 19.3   704 – Lincoln Laboratory ETS, New Mexico MPS 41164
2001 10 23.27992 01 34 09.26 +05 14 29.8 19.7   704 – Lincoln Laboratory ETS, New Mexico MPS 41164
2001 10 23.31274 01 34 07.52 +05 14 17.4 19.6   704 – Lincoln Laboratory ETS, New Mexico MPS 41164
2001 10 23.32916 01 34 06.65 +05 14 11.5 19.7   704 – Lincoln Laboratory ETS, New Mexico MPS 41164
2001 10 24.23207 01 33 20.91 +05 08 52.9 20.2 V 691 – Steward Observatory, Kitt Peak-Spacewatch MPS 41644
2001 10 24.24794 01 33 20.13 +05 08 48.3 18.8   704 – Lincoln Laboratory ETS, New Mexico MPS 41644
2001 10 24.25377 01 33 19.77 +05 08 45.4 20.1 V 691 – Steward Observatory, Kitt Peak-Spacewatch MPS 41644
2001 10 24.26448 01 33 19.19 +05 08 43.8 19.6   704 – Lincoln Laboratory ETS, New Mexico MPS 41644
2001 10 24.27523 01 33 18.63 +05 08 37.8 20.1 V 691 – Steward Observatory, Kitt Peak-Spacewatch MPS 41644
2001 10 24.28103 01 33 18.32 +05 08 37.2 19.5   704 – Lincoln Laboratory ETS, New Mexico MPS 41644
2001 10 24.29756 01 33 17.43 +05 08 31.3 18.9   704 – Lincoln Laboratory ETS, New Mexico MPS 41644
2001 10 24.31411 01 33 16.55 +05 08 24.8 19.0   704 – Lincoln Laboratory ETS, New Mexico MPS 41644
2001 11 20.14431 01 14 33.53 +03 07 34.9 19.3   704 – Lincoln Laboratory ETS, New Mexico MPS 48569
2001 11 20.15898 01 14 33.19 +03 07 33.3 19.8   704 – Lincoln Laboratory ETS, New Mexico MPS 48569
2001 11 20.17367 01 14 32.71 +03 07 31.0 20.0   704 – Lincoln Laboratory ETS, New Mexico MPS 48569
2001 11 20.18836 01 14 32.25 +03 07 28.7 19.7   704 – Lincoln Laboratory ETS, New Mexico MPS 48569
2001 11 20.20305 01 14 31.82 +03 07 25.2 19.9   704 – Lincoln Laboratory ETS, New Mexico MPS 48569
2002 12 19.51028 09 00 28.05 +10 25 27.7 19.0   644 – Palomar Mountain/NEAT MPS 69535
2002 12 19.53076 09 00 28.02 +10 25 26.4 18.8   644 – Palomar Mountain/NEAT MPS 69535
2002 12 19.55194 09 00 27.93 +10 25 25.2 18.9   644 – Palomar Mountain/NEAT MPS 69535
2002 12 27.26893 08 59 23.04 +10 22 43.4 19.0 R 699 – Lowell Observatory-LONEOS MPS 69535
2002 12 27.29298 08 59 22.65 +10 22 43.8   699 – Lowell Observatory-LONEOS MPS 69535
2002 12 27.31702 08 59 22.27 +10 22 45.0   699 – Lowell Observatory-LONEOS MPS 69535
2002 12 27.34096 08 59 21.87 +10 22 45.5   699 – Lowell Observatory-LONEOS MPS 69535
2002 12 28.33902 08 59 05.23 +10 23 12.0 18.9 R 699 – Lowell Observatory-LONEOS MPS 69535
2002 12 28.36137 08 59 04.82 +10 23 13.9   699 – Lowell Observatory-LONEOS MPS 69535
2002 12 28.38364 08 59 04.23 +10 23 13.0   699 – Lowell Observatory-LONEOS MPS 69535
2002 12 28.40583 08 59 03.96 +10 23 14.7   699 – Lowell Observatory-LONEOS MPS 69535
2003 01 01.41950 08 57 37.96 +10 26 58.8 18.3   704 – Lincoln Laboratory ETS, New Mexico MPS 69535
2003 01 01.43495 08 57 37.57 +10 27 00.0 18.6   704 – Lincoln Laboratory ETS, New Mexico MPS 69535
2003 01 01.45064 08 57 37.11 +10 27 01.3 18.6   704 – Lincoln Laboratory ETS, New Mexico MPS 69535
2003 01 01.46566 08 57 36.72 +10 27 03.0 18.2   704 – Lincoln Laboratory ETS, New Mexico MPS 69535
2003 01 01.48050 08 57 36.31 +10 27 04.3 18.7   704 – Lincoln Laboratory ETS, New Mexico MPS 69535
2003 01 07.38114 08 54 37.96 +10 38 10.2 19.4   704 – Lincoln Laboratory ETS, New Mexico MPS 69535
2003 01 07.39607 08 54 37.35 +10 38 12.0 19.7   704 – Lincoln Laboratory ETS, New Mexico MPS 69535
2003 01 07.41050 08 54 36.88 +10 38 13.9 19.4   704 – Lincoln Laboratory ETS, New Mexico MPS 69535
2003 01 07.42505 08 54 36.30 +10 38 16.7 19.1   704 – Lincoln Laboratory ETS, New Mexico MPS 69535
2003 01 07.43960 08 54 35.77 +10 38 17.6 20.0   704 – Lincoln Laboratory ETS, New Mexico MPS 69535
